Weather History for KFUL - March, 2013

Change the Weather History Date:

Thursday, March 14, 2013

  Actual Average Record
Temperature  
Mean Temperature 69 °F 60 °F  
Max Temperature 84 °F 70 °F 84 °F (2013)
Min Temperature 54 °F 50 °F 39 °F (2006)
Degree Days  
Heating Degree Days 0 6  
Month to date heating degree days 36 84  
Since 1 July heating degree days 707 1006  
Cooling Degree Days 4 0  
Month to date cooling degree days 19 8  
Year to date cooling degree days 31 17  
Growing Degree Days 18 (Base 50)    
Moisture  
Dew Point 51 °F    
Average Humidity 62    
Maximum Humidity 93    
Minimum Humidity 30    
Precipitation  
Precipitation 0.00 in 0.04 in 0.00 in ()
Month to date precipitation 0.63 1.56  
Year to date precipitation 2.03 7.84  
Since 1 July precipitation 5.34  
Snow  
Snow 0.00 in - - ()
Month to date snowfall 0.0  
Year to date snowfall 0.0  
Since 1 July snowfall 0.0  
Snow Depth 0.00 in    
Sea Level Pressure  
Sea Level Pressure 30.06 in    
Wind  
Wind Speed 2 mph (SSW)    
Max Wind Speed 8 mph    
Max Gust Speed 12 mph    
Visibility 4 miles    
Events Fog    
T = Trace of Precipitation, MM = Missing Value Source: NWS Daily Summary

Daily Weather History Graph

Daily Weather History Graph

Search for Another Location

Airport or City:

Trip Planner

Search our weather history database for the weather conditions in past years. The results will help you decide how hot, cold, wet, or windy it might be!

Date:

Astronomy

Mar. 14, 2013 Rise Set
Actual Time 7:03 AM PDT 6:59 PM PDT
Civil Twilight 6:38 AM PDT 7:24 PM PDT
Nautical Twilight 6:09 AM PDT 7:53 PM PDT
Astronomical Twilight 5:40 AM PDT 8:22 PM PDT
Moon 8:29 AM PDT (3/14) 10:08 PM PDT (3/14)
Length of Visible Light 12h 45m
Length of Day
11h 55m
Waxing Crescent, 9% of the Moon is Illuminated
Mar 14
Waxing Crescent
Mar 19
First Quarter
Mar 27
Full
Apr 2
Last Quarter
Apr 10
New

Hourly Weather History & Observations

Time (PDT) Temp. Heat Index Dew Point Humidity Pressure Visibility Wind Dir Wind Speed Gust Speed Precip Events Conditions
12:01 AM 55.4 °F - 51.8 °F 88% 30.08 in 1.5 mi SSW 3.5 mph - N/A   Overcast
12:12 AM 55.4 °F - 51.8 °F 88% 30.08 in 2.5 mi Calm Calm - N/A   Overcast
12:21 AM 55.4 °F - 51.8 °F 88% 30.08 in 3.0 mi Calm Calm - N/A   Overcast
12:41 AM 55.4 °F - 51.8 °F 88% 30.08 in 1.8 mi SSW 3.5 mph - N/A   Overcast
12:53 AM 55.9 °F - 52.0 °F 87% 30.08 in 1.8 mi Variable 3.5 mph - N/A   Overcast
1:19 AM 55.4 °F - 51.8 °F 88% 30.09 in 0.5 mi Calm Calm - N/A Fog Fog
1:34 AM 55.4 °F - 51.8 °F 88% 30.09 in 1.5 mi Calm Calm - N/A   Overcast
1:43 AM 55.4 °F - 51.8 °F 88% 30.09 in 2.5 mi SSE 3.5 mph - N/A   Overcast
1:53 AM 55.0 °F - 52.0 °F 89% 30.09 in 2.0 mi Calm Calm - N/A   Overcast
2:39 AM 55.4 °F - 51.8 °F 88% 30.08 in 2.0 mi ESE 3.5 mph - N/A   Overcast
2:46 AM 55.4 °F - 51.8 °F 88% 30.08 in 0.8 mi Calm Calm - N/A   Overcast
2:53 AM 55.0 °F - 51.1 °F 86% 30.08 in 0.5 mi SE 3.5 mph - N/A Fog Fog
3:53 AM 55.0 °F - 51.1 °F 86% 30.06 in 0.8 mi Calm Calm - N/A   Mist
4:18 AM 55.4 °F - 51.8 °F 88% 30.05 in 1.2 mi Calm Calm - N/A   Overcast
4:29 AM 55.4 °F - 51.8 °F 88% 30.06 in 0.8 mi Calm Calm - N/A   Mist
4:53 AM 55.0 °F - 52.0 °F 89% 30.06 in 1.0 mi Calm Calm - N/A   Overcast
5:32 AM 53.6 °F - 51.8 °F 94% 30.06 in 0.5 mi Calm Calm - N/A Fog Fog
5:48 AM 55.4 °F - 51.8 °F 88% 30.06 in 1.8 mi Calm Calm - N/A   Overcast
5:53 AM 55.0 °F - 51.1 °F 86% 30.06 in 1.5 mi Calm Calm - N/A   Overcast
6:12 AM 53.6 °F - 51.8 °F 94% 30.06 in 0.5 mi Calm Calm - N/A Fog Fog
6:38 AM 55.4 °F - 51.8 °F 88% 30.07 in 1.0 mi Calm Calm - N/A   Overcast
6:48 AM 55.4 °F - 51.8 °F 88% 30.07 in 0.5 mi Calm Calm - N/A Fog Fog
6:53 AM 55.0 °F - 51.1 °F 86% 30.06 in 0.5 mi Calm Calm - N/A Fog Fog
7:53 AM 54.0 °F - 51.1 °F 90% 30.07 in 0.2 mi Calm Calm - N/A Fog Fog
8:35 AM 55.4 °F - 51.8 °F 88% 30.08 in 1.2 mi Calm Calm - N/A   Overcast
8:51 AM 55.4 °F - 51.8 °F 88% 30.08 in 2.0 mi NW 3.5 mph - N/A   Overcast
8:53 AM 55.9 °F - 51.1 °F 84% 30.08 in 2.0 mi WNW 3.5 mph - N/A   Haze
9:07 AM 57.2 °F - 51.8 °F 82% 30.08 in 3.0 mi Calm Calm - N/A   Haze
9:53 AM 64.0 °F - 51.1 °F 63% 30.07 in 4.0 mi Calm Calm - N/A   Haze
10:53 AM 72.0 °F - 51.1 °F 48% 30.07 in 5.0 mi SSW 4.6 mph - N/A   Haze
11:53 AM 78.1 °F - 52.0 °F 40% 30.06 in 5.0 mi Calm Calm - N/A   Haze
12:53 PM 80.1 °F 80.0 °F 54.0 °F 40% 30.04 in 5.0 mi South 5.8 mph - N/A   Haze
1:53 PM 80.1 °F 80.1 °F 55.0 °F 42% 30.02 in 6.0 mi SW 4.6 mph - N/A   Haze
2:53 PM 81.0 °F 80.7 °F 55.0 °F 41% 30.01 in 8.0 mi Variable 3.5 mph - N/A   Clear
3:53 PM 82.9 °F - 48.9 °F 31% 30.00 in 10.0 mi Variable 5.8 mph - N/A   Clear
4:53 PM 81.0 °F - 46.9 °F 30% 30.00 in 10.0 mi West 5.8 mph - N/A   Clear
5:53 PM 79.0 °F - 46.0 °F 31% 29.99 in 10.0 mi Variable 3.5 mph - N/A   Clear
6:53 PM 72.0 °F - 46.9 °F 41% 30.00 in 10.0 mi Calm Calm - N/A   Clear
7:53 PM 69.1 °F - 45.0 °F 42% 30.00 in 10.0 mi SSW 3.5 mph - N/A   Clear
8:53 PM 66.9 °F - 46.0 °F 47% 30.01 in 10.0 mi WSW 3.5 mph - N/A   Clear
9:53 PM 64.0 °F - 48.9 °F 58% 30.03 in 10.0 mi Calm Calm - N/A   Clear
10:53 PM 62.1 °F - 51.1 °F 67% 30.04 in 10.0 mi South 3.5 mph - N/A   Clear
11:53 PM 59.0 °F - 53.1 °F 81% 30.04 in 9.0 mi South 3.5 mph - N/A   Clear